User: anonymous   Login
Location: Caltech
(34.1382°N, 118.1253°W)
Time: 06:00:06
(UTC-07:00)
Language:

Hubble Space Telescope - Orbit

View from above orbital plane
View from above orbital plane
View from above satellite
View from above satellite

Ground track
Ground track

The orbit data is extracted from the following two-line orbital elements,

1 20580U 90037B   15141.76170574  .00002299  00000-0  13674-3 0  9999
2 20580 028.4709 328.3793 0002760 319.8912 143.6089 15.07394297175810
Epoch (UTC): 21 May 2015 18:16:51
Eccentricity: 0.0002760
inclination: 28.4709°
perigee height: 542 km
apogee height: 546 km
right ascension of ascending node: 328.3793°
argument of perigee: 319.8912°
revolutions per day: 15.07394297
mean anomaly at epoch: 143.6089°
orbit number at epoch: 17581

The dashed part of the orbit path shows where the satellite is in the earth's shadow,  

DLR